Location: Dover
(48.8500°N, 53.9833°W)
Time: 05:46:47
(UTC+00:00)

IRAS Rocket - Pass Details

Date: 14 November 2025
Orbit: 845 x 876 km, 100.1° (Epoch: 16 December)

Event Time Altitude Azimuth Distance (km) Brightness Sun altitude
Rises 21:36:04 0° 155° (SSE) 3,442 7.2 -16.3°
Reaches altitude 10° 21:38:27 10° 153° (SSE) 2,504 6.5 -16.7°
Maximum altitude 21:43:59 73° 70° (ENE) 902 4.1 -17.6°
Drops below altitude 10° 21:49:31 10° 346° (NNW) 2,501 6.7 -18.5°
Sets 21:51:53 0° 345° (NNW) 3,437 7.5 -18.9°
